Ruidoso, NM

3:34 PM MDT on October 23, 2017 (GMT -0600)
Sierra Blanca Regional

Weather History for KSRR - December, 2013

Change the Weather History Date:

Thursday, December 5, 2013

  Actual Average Record
Temperature  
Mean Temperature 28 °F -  
Max Temperature 41 °F 47 °F 62 °F (2012)
Min Temperature 14 °F 27 °F 5 °F (2011)
Degree Days  
Heating Degree Days 38    
Moisture  
Dew Point 16 °F    
Average Humidity 82    
Maximum Humidity 93    
Minimum Humidity 45    
Precipitation  
Precipitation 0.01 in - - ()
Sea Level Pressure  
Sea Level Pressure 29.90 in    
Wind  
Wind Speed 11 mph (SSE)    
Max Wind Speed 20 mph    
Max Gust Speed 28 mph    
Visibility 7 miles    
Events Snow    
Averages and records for this station are not official NWS values.
T = Trace of Precipitation, MM = Missing Value Source: NWS Daily Summary

Daily Weather History Graph

Daily Weather History Graph

Search for Another Location

Airport or City:

Trip Planner

Search our weather history database for the weather conditions in past years. The results will help you decide how hot, cold, wet, or windy it might be!

Date:

Astronomy

Dec. 05, 2013 Rise Set
Actual Time 6:51 AM MST 4:54 PM MST
Civil Twilight 6:24 AM MST 5:21 PM MST
Nautical Twilight 5:53 AM MST 5:52 PM MST
Astronomical Twilight 5:23 AM MST 6:22 PM MST
Moon 9:17 AM MST (12/5) 8:12 PM MST (12/5)
Length of Visible Light 10h 56m
Length of Day
10h 02m
Waxing Crescent, 11% of the Moon is Illuminated
Dec 5
Waxing Crescent
Dec 9
First Quarter
Dec 17
Full
Dec 25
Last Quarter
Jan 1
New

Hourly Weather History & Observations

Time (MST) Temp. Windchill Dew Point Humidity Pressure Visibility Wind Dir Wind Speed Gust Speed Precip Events Conditions
12:15 AM 41.0 °F 31.9 °F 23.0 °F 49% 29.89 in 10.0 mi WSW 19.6 mph 27.6 mph N/A   Clear
12:35 AM 41.0 °F 31.9 °F 23.0 °F 49% 29.89 in 10.0 mi WSW 19.6 mph 23.0 mph N/A   Clear
12:55 AM 41.0 °F 34.3 °F 23.0 °F 49% 29.88 in 10.0 mi WSW 11.5 mph 20.7 mph N/A   Clear
1:15 AM 41.0 °F 33.5 °F 24.8 °F 53% 29.89 in 10.0 mi WSW 13.8 mph 23.0 mph N/A   Clear
1:35 AM 41.0 °F 31.9 °F 24.8 °F 53% 29.88 in 10.0 mi WSW 19.6 mph 24.2 mph N/A   Clear
1:55 AM 41.0 °F 32.5 °F 21.2 °F 45% 29.88 in 10.0 mi West 17.3 mph 23.0 mph N/A   Clear
2:15 AM 41.0 °F 34.7 °F 23.0 °F 49% 29.89 in 10.0 mi SW 10.4 mph 19.6 mph N/A   Clear
2:35 AM 41.0 °F 34.7 °F 23.0 °F 49% 29.89 in 10.0 mi SW 10.4 mph 18.4 mph N/A   Clear
2:55 AM 39.2 °F 33.6 °F 23.0 °F 52% 29.89 in 10.0 mi SSW 8.1 mph - N/A   Clear
3:15 AM 39.2 °F 35.0 °F 24.8 °F 56% 29.89 in 10.0 mi SW 5.8 mph - N/A   Clear
3:35 AM 39.2 °F 33.6 °F 24.8 °F 56% 29.88 in 10.0 mi South 8.1 mph - N/A   Scattered Clouds
3:55 AM 37.4 °F 30.8 °F 23.0 °F 56% 29.88 in 10.0 mi SSE 9.2 mph - N/A   Mostly Cloudy
4:15 AM 32.0 °F 25.6 °F 19.4 °F 60% 29.88 in 10.0 mi SE 6.9 mph - N/A   Mostly Cloudy
4:35 AM 26.6 °F 15.7 °F 15.8 °F 64% 29.89 in 10.0 mi SSE 12.7 mph - N/A   Mostly Cloudy
4:55 AM 24.8 °F 13.4 °F 15.8 °F 69% 29.89 in 10.0 mi South 12.7 mph - N/A   Partly Cloudy
5:15 AM 24.8 °F 13.4 °F 15.8 °F 69% 29.91 in 8.0 mi South 12.7 mph - N/A   Mostly Cloudy
5:35 AM 23.0 °F 13.1 °F 17.6 °F 80% 29.92 in 2.0 mi South 9.2 mph - N/A   Overcast
5:55 AM 23.0 °F 11.1 °F 17.6 °F 80% 29.92 in 1.0 mi South 12.7 mph - N/A Snow Light Snow
6:15 AM 21.2 °F 11.7 °F 17.6 °F 86% 29.92 in 2.0 mi SSE 8.1 mph - N/A Snow Light Snow
6:35 AM 19.4 °F 7.2 °F 17.6 °F 93% 29.92 in 2.0 mi SSE 11.5 mph - N/A Snow Light Snow
6:55 AM 19.4 °F 5.5 °F 17.6 °F 93% 29.92 in 1.5 mi SSE 15.0 mph - N/A Snow Light Snow
7:15 AM 17.6 °F 3.2 °F 15.8 °F 93% 29.92 in 1.0 mi SSE 15.0 mph - N/A Snow Light Snow
7:35 AM 17.6 °F 6.4 °F 15.8 °F 93% 29.93 in 0.8 mi SSE 9.2 mph 20.7 mph N/A Snow Light Snow
7:55 AM 17.6 °F 8.2 °F 15.8 °F 93% 29.93 in 4.0 mi SE 6.9 mph - N/A   Overcast
8:15 AM 15.8 °F 5.1 °F 14.0 °F 93% 29.94 in 7.0 mi SE 8.1 mph - N/A   Overcast
8:35 AM 15.8 °F 3.4 °F 14.0 °F 93% 29.95 in 8.0 mi SE 10.4 mph - N/A   Overcast
8:55 AM 14.0 °F 1.2 °F 12.2 °F 93% 29.95 in 10.0 mi SE 10.4 mph - N/A   Overcast
9:15 AM 14.0 °F 2.9 °F 12.2 °F 93% 29.95 in 8.0 mi SE 8.1 mph - N/A   Overcast
9:35 AM 14.0 °F 0.5 °F 12.2 °F 93% 29.95 in 10.0 mi SE 11.5 mph - N/A   Overcast
9:55 AM 15.8 °F 4.2 °F 14.0 °F 93% 29.95 in 10.0 mi SE 9.2 mph - N/A   Overcast
10:15 AM 15.8 °F 4.2 °F 14.0 °F 93% 29.94 in 10.0 mi SSE 9.2 mph - N/A   Overcast
10:35 AM 17.6 °F 7.3 °F 14.0 °F 86% 29.93 in 10.0 mi SSE 8.1 mph - N/A   Overcast
10:55 AM 17.6 °F 6.4 °F 14.0 °F 86% 29.93 in 10.0 mi SSE 9.2 mph - N/A   Overcast
11:15 AM 17.6 °F 6.4 °F 15.8 °F 93% 29.93 in 10.0 mi SE 9.2 mph - N/A   Overcast
11:35 AM 17.6 °F 4.3 °F 14.0 °F 86% 29.92 in 10.0 mi SE 12.7 mph - N/A   Overcast
11:55 AM 17.6 °F 5.7 °F 15.8 °F 93% 29.90 in 8.0 mi SE 10.4 mph - N/A Snow Light Snow
12:15 PM 17.6 °F 8.2 °F 15.8 °F 93% 29.90 in 7.0 mi SSE 6.9 mph - N/A   Overcast
12:35 PM 17.6 °F 8.2 °F 15.8 °F 93% 29.87 in 8.0 mi SE 6.9 mph - N/A   Overcast
12:55 PM 17.6 °F 8.2 °F 15.8 °F 93% 29.87 in 4.0 mi SSE 6.9 mph - N/A Snow Light Snow
1:15 PM 17.6 °F 7.3 °F 15.8 °F 93% 29.87 in 7.0 mi ESE 8.1 mph - N/A   Overcast
1:35 PM 17.6 °F 5.0 °F 15.8 °F 93% 29.86 in 6.0 mi SE 11.5 mph - N/A   Overcast
1:55 PM 17.6 °F 5.7 °F 15.8 °F 93% 29.85 in 4.0 mi SE 10.4 mph - N/A Snow Light Snow
2:35 PM 15.8 °F 7.2 °F 14.0 °F 93% 29.86 in 4.0 mi East 5.8 mph - N/A Snow Light Snow
2:55 PM 17.6 °F 7.3 °F 14.0 °F 86% 29.85 in 5.0 mi ESE 8.1 mph - 0.01 in Snow Light Snow
3:15 PM 17.6 °F 8.2 °F 14.0 °F 86% 29.86 in 5.0 mi SE 6.9 mph - N/A Snow Light Snow
3:35 PM 17.6 °F 12.3 °F 14.0 °F 86% 29.86 in 2.0 mi East 3.5 mph - N/A Snow Light Snow
3:55 PM 17.6 °F 7.3 °F 14.0 °F 86% 29.87 in 3.0 mi SSE 8.1 mph - N/A Snow Light Snow
4:15 PM 15.8 °F 6.1 °F 14.0 °F 93% 29.87 in 3.0 mi SE 6.9 mph - N/A Snow Light Snow
4:35 PM 15.8 °F 6.1 °F 14.0 °F 93% 29.88 in 6.0 mi SE 6.9 mph - N/A Snow Light Snow
4:55 PM 15.8 °F 5.1 °F 14.0 °F 93% 29.88 in 3.0 mi SE 8.1 mph - N/A Snow Light Snow
5:15 PM 15.8 °F - 14.0 °F 93% 29.88 in 4.0 mi Calm Calm - N/A Snow Light Snow
5:35 PM 15.8 °F - 14.0 °F 93% 29.88 in 2.5 mi Calm Calm - N/A Snow Light Snow
5:55 PM 15.8 °F - 14.0 °F 93% 29.89 in 3.0 mi North - - N/A Snow Light Snow
6:15 PM 15.8 °F 6.1 °F 14.0 °F 93% 29.89 in 3.0 mi SSE 6.9 mph - N/A Snow Light Snow
6:35 PM 15.8 °F 6.1 °F 14.0 °F 93% 29.91 in 4.0 mi SE 6.9 mph - N/A Snow Light Snow
6:55 PM 15.8 °F 6.1 °F 12.2 °F 86% 29.91 in 7.0 mi SSE 6.9 mph - N/A Snow Light Snow
7:15 PM 15.8 °F 8.6 °F 12.2 °F 86% 29.92 in 4.0 mi South 4.6 mph - N/A Snow Light Snow
7:35 PM 15.8 °F 8.6 °F 14.0 °F 93% 29.91 in 8.0 mi SSE 4.6 mph - N/A Snow Light Snow
7:55 PM 15.8 °F - 12.2 °F 86% 29.92 in 10.0 mi North - - N/A Snow Light Snow
8:15 PM 14.0 °F 3.9 °F 12.2 °F 93% 29.92 in 10.0 mi SSE 6.9 mph - N/A   Overcast
8:35 PM 14.0 °F - 12.2 °F 93% 29.92 in 10.0 mi North - - N/A   Mostly Cloudy
8:55 PM 14.0 °F - 10.4 °F 86% 29.92 in 10.0 mi North - - N/A   Mostly Cloudy
9:15 PM 14.0 °F - 10.4 °F 86% 29.92 in 10.0 mi North - - N/A   Mostly Cloudy
9:35 PM 14.0 °F 8.2 °F 10.4 °F 86% 29.92 in 10.0 mi WSW 3.5 mph - N/A Snow Light Snow
9:55 PM 14.0 °F 5.1 °F 12.2 °F 93% 29.92 in 10.0 mi South 5.8 mph - N/A   Mostly Cloudy
10:15 PM 14.0 °F - 12.2 °F 93% 29.93 in 9.0 mi Calm Calm - N/A Snow Light Snow
10:35 PM 14.0 °F - 10.4 °F 86% 29.93 in 10.0 mi Calm Calm - N/A   Scattered Clouds
10:55 PM 14.0 °F 6.5 °F 10.4 °F 86% 29.94 in 8.0 mi South 4.6 mph - N/A Snow Light Snow
11:15 PM 14.0 °F 8.2 °F 12.2 °F 93% 29.94 in 3.0 mi South 3.5 mph - N/A Snow Light Snow
11:35 PM 14.0 °F - 10.4 °F 86% 29.94 in 9.0 mi Calm Calm - N/A Snow Light Snow
11:55 PM 14.0 °F - 10.4 °F 86% 29.94 in 10.0 mi Calm Calm - N/A   Scattered Clouds